Montgomery, NY

4:21 AM EST on February 10, 2016 (GMT -0500)
Orange County

Weather History for KMGJ - April, 2014

Change the Weather History Date:

Wednesday, April 30, 2014

  Actual Average (KPOU) Record (KPOU)
Temperature  
Mean Temperature 44 °F 54 °F  
Max Temperature 48 °F 67 °F 86 °F (1985)
Min Temperature 39 °F 41 °F 28 °F (2012)
Degree Days  
Heating Degree Days 22 11  
Month to date heating degree days 493  
Since 1 July heating degree days 5939  
Cooling Degree Days 0 0  
Month to date cooling degree days 5  
Year to date cooling degree days 5  
Moisture  
Dew Point 42 °F    
Average Humidity 92    
Maximum Humidity 97    
Minimum Humidity 82    
Precipitation  
Precipitation 1.68 in 0.13 in 1.70 in (2014)
Month to date precipitation 3.78  
Year to date precipitation 13.09  
Sea Level Pressure  
Sea Level Pressure 30.24 in    
Wind  
Wind Speed 8 mph (NE)    
Max Wind Speed 12 mph    
Max Gust Speed -    
Visibility 5 miles    
Events Rain    
T = Trace of Precipitation, MM = Missing Value Source: NWS Daily Summary

Daily Weather History Graph

Daily Weather History Graph

Search for Another Location

Airport or City:

Trip Planner

Search our weather history database for the weather conditions in past years. The results will help you decide how hot, cold, wet, or windy it might be!

Date:

Astronomy

Apr. 30, 2014 Rise Set
Actual Time 5:55 AM EDT 7:53 PM EDT
Civil Twilight 5:25 AM EDT 8:23 PM EDT
Nautical Twilight 4:48 AM EDT 9:00 PM EDT
Astronomical Twilight 4:08 AM EDT 9:40 PM EDT
Moon 6:54 AM EDT (4/30) 9:30 PM EDT (4/30)
Length of Visible Light 14h 58m
Length of Day
13h 58m
New Moon, 2% of the Moon is Illuminated
Apr 30
New Moon
May 6
First Quarter
May 14
Full
May 21
Last Quarter
May 28
New

Hourly Weather History & Observations

Time (EDT) Temp. Windchill Dew Point Humidity Pressure Visibility Wind Dir Wind Speed Gust Speed Precip Events Conditions
12:54 AM 42.1 °F 36.6 °F 37.0 °F 82% 30.42 in 10.0 mi East 9.2 mph - 0.00 in   Overcast
1:25 AM 42.1 °F 39.2 °F 37.9 °F 85% 30.42 in 10.0 mi East 4.6 mph - 0.00 in Rain Light Rain
1:54 AM 42.1 °F 36.6 °F 37.9 °F 85% 30.40 in 6.0 mi East 9.2 mph - 0.05 in Rain Rain
2:09 AM 41.0 °F 34.7 °F 39.0 °F 93% 30.39 in 5.0 mi East 10.4 mph - 0.02 in Rain Rain
2:54 AM 41.0 °F 37.1 °F 39.0 °F 93% 30.42 in 6.0 mi NE 5.8 mph - 0.16 in Rain Rain
3:10 AM 41.0 °F 35.2 °F 37.9 °F 89% 30.38 in 7.0 mi ENE 9.2 mph - 0.02 in Rain Light Rain
3:17 AM 41.0 °F 34.3 °F 37.9 °F 89% 30.37 in 7.0 mi East 11.5 mph - 0.04 in Rain Rain
3:28 AM 39.9 °F 33.4 °F 37.9 °F 93% 30.37 in 7.0 mi East 10.4 mph - 0.06 in Rain Rain
3:54 AM 39.9 °F 33.9 °F 39.0 °F 97% 30.40 in 10.0 mi NE 9.2 mph - 0.08 in Rain Light Rain
4:54 AM 39.9 °F 33.4 °F 39.0 °F 97% 30.38 in 10.0 mi ENE 10.4 mph - 0.00 in Rain Light Rain
5:54 AM 39.9 °F 35.8 °F 37.9 °F 93% 30.39 in 10.0 mi NE 5.8 mph - 0.00 in Rain Light Rain
7:54 AM 41.0 °F 36.4 °F 39.0 °F 93% 30.37 in 7.0 mi NE 6.9 mph - 0.02 in Rain Light Rain
8:54 AM 41.0 °F 36.4 °F 39.0 °F 93% 30.37 in 4.0 mi NE 6.9 mph - 0.07 in Rain Rain
9:54 AM 41.0 °F 35.2 °F 39.9 °F 96% 30.35 in 2.5 mi NE 9.2 mph - 0.11 in Rain Heavy Rain
10:02 AM 42.1 °F 37.1 °F 39.9 °F 92% 30.35 in 4.0 mi NE 8.1 mph - 0.01 in Rain Rain
10:23 AM 42.1 °F 37.1 °F 39.9 °F 92% 30.35 in 3.0 mi NE 8.1 mph - 0.05 in Rain Rain
10:33 AM 41.0 °F 36.4 °F 39.0 °F 93% 30.34 in 2.0 mi NE 6.9 mph - 0.11 in Rain Heavy Rain
11:10 AM 42.1 °F 37.7 °F 39.9 °F 92% 30.32 in 2.5 mi NE 6.9 mph - 0.05 in Rain Heavy Rain
11:43 AM 42.1 °F 39.2 °F 41.0 °F 96% 30.33 in 3.0 mi NE 4.6 mph - 0.13 in Rain Rain
11:51 AM 42.8 °F 38.6 °F 41.0 °F 93% 30.32 in 1.8 mi NE 6.9 mph - 0.16 in Rain Rain
11:52 AM 42.1 °F 37.7 °F 41.0 °F 96% 30.33 in 1.5 mi NE 6.9 mph - 0.17 in Rain Rain
12:08 PM 42.1 °F 38.4 °F 41.0 °F 96% 30.32 in 2.5 mi NE 5.8 mph - 0.06 in Rain Heavy Rain
12:15 PM 42.1 °F 38.4 °F 39.9 °F 92% 30.31 in 2.5 mi NE 5.8 mph - 0.08 in Rain Rain
12:25 PM 43.0 °F 38.8 °F 41.0 °F 93% 30.31 in 3.0 mi NE 6.9 mph - 0.11 in Rain Rain
12:34 PM 43.0 °F 39.5 °F 41.0 °F 93% 30.31 in 2.0 mi NE 5.8 mph - 0.15 in Rain Heavy Rain
12:54 PM 43.0 °F 38.8 °F 41.0 °F 93% 30.31 in 3.0 mi NE 6.9 mph - 0.18 in Rain Light Rain
1:16 PM 43.0 °F 38.2 °F 41.0 °F 93% 30.29 in 4.0 mi NE 8.1 mph - 0.02 in Rain Rain
1:35 PM 43.0 °F 38.8 °F 41.0 °F 93% 30.28 in 4.0 mi ENE 6.9 mph - 0.05 in Rain Rain
1:42 PM 43.0 °F 39.5 °F 41.0 °F 93% 30.28 in 4.0 mi ENE 5.8 mph - 0.07 in Rain Rain
1:54 PM 44.1 °F 40.8 °F 42.1 °F 93% 30.28 in 4.0 mi ENE 5.8 mph - 0.09 in Rain Rain
2:54 PM 45.0 °F 40.6 °F 42.1 °F 90% 30.25 in 5.0 mi NNE 8.1 mph - 0.08 in Rain Light Rain
3:02 PM 45.0 °F 40.6 °F 43.0 °F 93% 30.23 in 6.0 mi NE 8.1 mph - 0.01 in Rain Light Rain
3:25 PM 45.0 °F 41.8 °F 43.0 °F 93% 30.23 in 5.0 mi North 5.8 mph - 0.03 in Rain Rain
3:38 PM 45.0 °F 42.6 °F 43.0 °F 93% 30.23 in 2.0 mi NNE 4.6 mph - 0.09 in Rain Heavy Rain
3:54 PM 45.0 °F 41.8 °F 43.0 °F 93% 30.22 in 2.5 mi ENE 5.8 mph - 0.17 in Rain Heavy Rain
3:59 PM 45.0 °F 41.8 °F 43.0 °F 93% 30.22 in 3.0 mi NE 5.8 mph - 0.01 in Rain Rain
5:20 PM 46.9 °F - 44.1 °F 90% 30.17 in 10.0 mi ENE 9.2 mph - 0.00 in Rain Light Rain
5:30 PM 46.9 °F - 43.0 °F 86% 30.17 in 10.0 mi East 9.2 mph - 0.00 in Rain Light Rain
5:54 PM 46.9 °F - 43.0 °F 86% 30.17 in 10.0 mi East 9.2 mph - 0.00 in   Overcast
6:54 PM 46.9 °F - 44.1 °F 90% 30.16 in 4.0 mi ENE 5.8 mph - 0.09 in Rain Rain
7:10 PM 46.9 °F - 44.1 °F 90% 30.14 in 7.0 mi ENE 6.9 mph - 0.02 in Rain Light Rain
7:54 PM 46.9 °F - 44.1 °F 90% 30.13 in 7.0 mi ENE 8.1 mph - 0.11 in Rain Rain
8:20 PM 46.9 °F - 44.1 °F 90% 30.09 in 8.0 mi East 11.5 mph - 0.04 in Rain Rain
9:16 PM 46.9 °F - 45.0 °F 93% 30.09 in 4.0 mi NNE 6.9 mph - 0.09 in Rain Heavy Rain
9:20 PM 46.9 °F - 45.0 °F 93% 30.09 in 2.5 mi NNE 6.9 mph - 0.14 in Rain Heavy Rain
9:27 PM 46.9 °F - 46.0 °F 97% 30.09 in 2.5 mi NNE 5.8 mph - 0.20 in Rain Heavy Rain
9:42 PM 48.0 °F - 46.0 °F 93% 30.09 in 3.0 mi North 8.1 mph - 0.28 in Rain Heavy Rain
10:07 PM 46.9 °F - 45.0 °F 93% 30.07 in 3.0 mi NNE 9.2 mph - 0.05 in Rain Rain
10:14 PM 46.9 °F - 45.0 °F 93% 30.06 in 4.0 mi NNE 9.2 mph - 0.06 in Rain Rain
10:37 PM 46.9 °F - 46.0 °F 97% 30.04 in 6.0 mi NE 6.9 mph - 0.09 in Rain Light Rain
10:54 PM 48.9 °F - 46.9 °F 93% 30.04 in 6.0 mi NE 6.9 mph - 0.12 in Rain Rain
11:15 PM 48.0 °F - 46.0 °F 93% 30.02 in 4.0 mi NNE 8.1 mph - 0.06 in Rain Rain
11:26 PM 48.0 °F - 46.9 °F 96% 30.01 in 2.5 mi NNE 8.1 mph - 0.14 in Rain Rain
11:33 PM 48.9 °F - 46.9 °F 93% 30.00 in 4.0 mi NNE 9.2 mph - 0.15 in Rain Rain
11:54 PM 48.9 °F - 46.9 °F 93% 29.99 in 7.0 mi ENE 9.2 mph - 0.18 in Rain Rain